Location: BGSU Observatory
(41.3799°N, 83.6397°W)
Time: 09:25:19
(UTC-04:00)

Amateur Radio Satellites - All Passes

Search period start: 29 May 2016 08:55
Search period end: 30 May 2016 08:55
Location: BGSU Observatory, 41.3799°N, 83.6397°W

Satellite Date Start Highest point End Downlink Frequencies (MHz)
Time Altitude Azimuth
SEEDS 29 May 08:58:51 09:01:44 17° 93° (E) 09:04:36 437.485
CANX-2 29 May 08:59:02 09:02:44 28° 95° (E) 09:06:25 2200.000
SO-50 29 May 09:02:27 09:06:45 34° 48° (NE) 09:10:54 436.795
AUBIESAT-1 29 May 09:03:19 09:05:23 15° 100° (E) 09:07:26 437.475
CUTE-I 29 May 09:08:41 09:13:05 27° 295° (WNW) 09:17:30 437.470
M-CUBED/EXP-1 PRIME 29 May 09:11:02 09:13:44 24° 102° (ESE) 09:16:27 437.505
LilacSat-2 29 May 09:11:02 09:12:53 13° 295° (WNW) 09:14:44 437.200
DOVE 4 29 May 09:12:26 09:16:45 64° 285° (WNW) 09:20:52 437.250
O/OREOS (USA 219) 29 May 09:16:24 09:19:52 22° 102° (ESE) 09:23:20 437.305
GONETS M04 29 May 09:22:33 09:31:04 55° 77° (ENE) 09:39:31
CUTE 1.7 + AOD 2 29 May 09:25:36 09:29:46 48° 99° (E) 09:33:55 437.475
CINEMA 3 29 May 09:30:05 09:34:11 56° 100° (E) 09:38:15 145.822/145.860
Oscar 11 29 May 09:39:05 09:40:13 11° 89° (E) 09:41:22 145.826/435.025
COMPASS 1 29 May 09:40:53 09:44:48 36° 97° (E) 09:48:42 437.405
AAUSAT CUBESAT 2 29 May 09:41:48 09:45:30 29° 96° (E) 09:49:11 437.432
AIST 1 29 May 09:53:11 09:56:56 29° 270° (W) 10:00:38
ZACube-1 29 May 09:55:31 09:57:57 15° 92° (E) 10:00:23 437.345
Cosmos 2499 29 May 09:59:28 10:08:00 58° 78° (ENE) 10:16:43 435.465 / 435.565
CUBEBUG 2 29 May 10:07:35 10:11:35 44° 99° (E) 10:15:39 437.445
UNISAT 6 29 May 10:22:58 10:26:40 28° 69° (ENE) 10:30:19 437.425
PRISM 29 May 10:28:27 10:30:18 13° 269° (W) 10:32:10 437.425
TIGRISAT 29 May 10:29:45 10:33:34 31° 70° (ENE) 10:37:20 435.000
PCSat 29 May 10:29:50 10:35:15 89° 307° (NW) 10:40:44 145.827
FUNcube-1 29 May 10:31:26 10:35:18 35° 97° (E) 10:39:13 145.935
UWE-3 29 May 10:32:15 10:36:24 58° 100° (E) 10:40:36 435.000/436.395/437.385
SEEDS 29 May 10:33:36 10:37:35 39° 288° (WNW) 10:41:33 437.485
CANX-2 29 May 10:34:57 10:38:29 26° 291° (WNW) 10:42:02 2200.000
AUBIESAT-1 29 May 10:37:09 10:39:57 26° 295° (WNW) 10:42:47 437.475
HO-68 29 May 10:42:28 10:49:20 50° 293° (WNW) 10:56:11 435.675
SO-50 29 May 10:43:06 10:47:09 30° 247° (WSW) 10:51:03 436.795
M-CUBED/EXP-1 PRIME 29 May 10:46:00 10:48:12 17° 297° (WNW) 10:50:24 437.505
O/OREOS (USA 219) 29 May 10:54:47 10:59:01 37° 298° (WNW) 11:03:15 437.305
CUTE 1.7 + AOD 2 29 May 11:02:38 11:05:13 16° 295° (WNW) 11:07:48 437.475
ANTELSAT 29 May 11:03:22 11:07:42 77° 77° (ENE) 11:12:01 437.575/2403.000
BEESAT 2 29 May 11:07:16 11:07:41 10° 108° (ESE) 11:08:06 435.950
CINEMA 3 29 May 11:09:02 11:10:51 13° 297° (WNW) 11:12:39 145.822/145.860
Oscar 11 29 May 11:12:28 11:16:47 66° 285° (WNW) 11:21:05 145.826/435.025
COMPASS 1 29 May 11:17:04 11:20:07 20° 293° (WNW) 11:23:09 437.405
AAUSAT CUBESAT 2 29 May 11:17:30 11:20:51 23° 292° (WNW) 11:24:10 437.432
GONETS M04 29 May 11:20:03 11:27:25 32° 276° (W) 11:34:47
POPSAT HIP 1 29 May 11:21:19 11:24:34 22° 67° (ENE) 11:27:49 437.405
QB50P1 29 May 11:21:29 11:24:46 22° 67° (ENE) 11:28:03 145.935-145.965
HUMSAT D 29 May 11:22:35 11:26:22 33° 97° (E) 11:30:11 437.325/437.525
QB50P2 29 May 11:24:16 11:27:43 25° 68° (ENE) 11:31:10 145.880/145.840
POLYITAN 1 29 May 11:26:42 11:30:11 25° 68° (ENE) 11:33:40 437.675
ZACube-1 29 May 11:30:27 11:34:28 45° 287° (WNW) 11:38:32 437.345
DELFI C3 29 May 11:31:30 11:35:33 82° 284° (WNW) 11:39:35 145.870
BEESAT 3 29 May 11:34:45 11:38:24 38° 116° (ESE) 11:42:05 437.485
NANOSAT C BR1 29 May 11:38:17 11:42:01 31° 70° (ENE) 11:45:46 145.865
CUSAT 1 29 May 11:39:04 11:44:52 34° 86° (E) 11:51:36 437.405
CUBEBUG 2 29 May 11:45:21 11:47:53 16° 295° (WNW) 11:50:27 437.445
DANDE 29 May 11:52:14 11:56:12 19° 78° (ENE) 12:00:47 436.750
Cosmos 2499 29 May 11:53:19 12:00:38 32° 276° (W) 12:08:07 435.465 / 435.565
UNISAT 6 29 May 11:59:43 12:03:21 25° 265° (W) 12:06:56 437.425
TIGRISAT 29 May 12:06:50 12:10:16 23° 265° (W) 12:13:42 435.000
FUNcube-1 29 May 12:08:16 12:11:20 20° 293° (WNW) 12:14:26 145.935
UWE-3 29 May 12:10:34 12:12:24 13° 296° (WNW) 12:14:14 435.000/436.395/437.385
DUCHIFAT 1 29 May 12:15:24 12:19:36 79° 76° (ENE) 12:23:49 145.980
PCSat 29 May 12:16:00 12:19:26 17° 319° (NW) 12:22:53 145.827
UKube-1 29 May 12:22:35 12:24:09 12° 90° (E) 12:25:43 .
AISAT 29 May 12:23:41 12:26:57 20° 94° (E) 12:30:10 437.250
BUGSAT 1 29 May 12:25:44 12:29:46 47° 73° (ENE) 12:33:47 437.445
JAS-2 29 May 12:32:12 12:38:47 35° 63° (ENE) 12:45:40 435.910
BEESAT 2 29 May 12:40:59 12:44:57 69° 305° (NW) 12:48:56 435.950
POPSAT HIP 1 29 May 12:56:22 13:00:10 32° 263° (W) 13:03:59 437.405
QB50P1 29 May 12:56:35 13:00:22 31° 263° (W) 13:04:10 145.935-145.965
Oscar 19 29 May 12:56:55 13:00:30 19° 63° (ENE) 13:04:05 437.125/150
HUMSAT D 29 May 12:58:41 13:01:48 21° 293° (WNW) 13:04:56 437.325/437.525
QB50P2 29 May 12:59:46 13:03:25 28° 264° (W) 13:07:04 145.880/145.840
POLYITAN 1 29 May 13:02:17 13:05:54 27° 264° (W) 13:09:31 437.675
ESTCUBE 1 29 May 13:08:54 13:13:29 90° 208° (SSW) 13:18:01 437.505/2401.250
CUBEBUG 1 29 May 13:10:40 13:15:02 65° 101° (ESE) 13:19:20 437.445
DX 1 29 May 13:10:46 13:15:01 51° 100° (E) 13:19:14 434.975-435.025
BEESAT 3 29 May 13:13:11 13:16:13 21° 314° (NW) 13:19:17 437.485
NANOSAT C BR1 29 May 13:14:32 13:17:47 21° 266° (W) 13:21:03 145.865
50 SAT 29 May 13:15:12 13:18:57 89° 114° (ESE) 13:22:40 437.505
CUSAT 1 29 May 13:20:20 13:26:40 47° 288° (WNW) 13:34:12 437.405
VELOX 1 29 May 13:22:47 13:27:14 85° 104° (ESE) 13:31:38 145.980
SPROUT 29 May 13:28:52 13:32:53 39° 98° (E) 13:36:51 437.525
AIST 2 29 May 13:29:37 13:32:54 23° 113° (ESE) 13:36:12 435.215
DANDE 29 May 13:32:13 13:37:52 71° 283° (WNW) 13:45:16 436.750
Gurwin Techsat 1B 29 May 13:35:15 13:38:52 19° 62° (ENE) 13:42:29 435.225
TISAT 1 29 May 13:46:45 13:49:25 16° 93° (E) 13:52:03 437.305
UKube-1 29 May 13:56:20 14:00:36 61° 286° (WNW) 14:04:50 .
AISAT 29 May 13:59:28 14:03:32 37° 290° (WNW) 14:07:34 437.250
BUGSAT 1 29 May 14:03:06 14:05:23 14° 268° (W) 14:07:40 437.445
JAS-2 29 May 14:16:12 14:23:23 54° 262° (W) 14:31:05 435.910
AO-85 29 May 14:29:10 14:33:16 28° 46° (NE) 14:37:03 145.980
Oscar 19 29 May 14:34:16 14:39:22 57° 260° (W) 14:44:30 437.125/150
Cosmos 2491 29 May 14:38:00 14:45:00 26° 66° (ENE) 14:51:55 435.465 / 435.565
AO-7 29 May 14:38:55 14:45:06 24° 53° (NE) 14:51:17 29.400- 29.500
DX 1 29 May 14:48:13 14:50:47 16° 297° (WNW) 14:53:21 434.975-435.025
CUBEBUG 1 29 May 14:48:54 14:50:46 13° 298° (WNW) 14:52:36 437.445
VELOX 1 29 May 15:02:38 15:03:00 10° 300° (WNW) 15:03:22 145.980
SPROUT 29 May 15:05:36 15:08:32 18° 294° (WNW) 15:11:29 437.525
AIST 2 29 May 15:07:27 15:11:13 34° 310° (NW) 15:15:01 435.215
Gurwin Techsat 1B 29 May 15:13:06 15:18:20 60° 259° (W) 15:23:36 435.225
DANDE 29 May 15:19:38 15:22:33 13° 307° (NW) 15:25:44 436.750
ITAMSAT 1 29 May 15:20:11 15:25:17 66° 73° (ENE) 15:30:26 435.822/435.867
TISAT 1 29 May 15:21:20 15:25:14 40° 289° (WNW) 15:29:08 437.305
SWISSCUBE 29 May 15:24:48 15:29:20 40° 99° (E) 15:33:50 437.505
ITUPSAT 1 29 May 15:32:03 15:36:38 42° 99° (E) 15:41:11 437.325
BEESAT 29 May 15:54:06 15:58:54 73° 103° (ESE) 16:03:41 436.000
AO-85 29 May 16:09:38 16:13:47 34° 246° (WSW) 16:17:36 145.980
KKS-1 29 May 16:17:35 16:20:09 15° 92° (E) 16:22:42 437.445
AO-7 29 May 16:28:37 16:36:56 83° 254° (WSW) 16:45:18 29.400- 29.500
RS-15 29 May 16:32:45 16:41:43 29° 102° (ESE) 16:51:00 29.354- 29.394
YUBILEINY 29 May 16:32:49 16:41:09 54° 90° (E) 16:49:30 435.215
Cosmos 2491 29 May 16:33:56 16:42:38 71° 267° (W) 16:51:15 435.465 / 435.565
HORYU 2 29 May 16:41:33 16:45:10 26° 67° (ENE) 16:48:49 437.375
MOZHAYETS 4 29 May 16:47:05 16:50:56 25° 95° (E) 16:54:47
STARS 29 May 16:47:26 16:50:08 16° 92° (E) 16:52:50 437.465
ITAMSAT 1 29 May 17:02:18 17:05:13 15° 269° (W) 17:08:07 435.822/435.867
SWISSCUBE 29 May 17:03:10 17:06:52 23° 295° (WNW) 17:10:34 437.505
ITUPSAT 1 29 May 17:10:32 17:14:11 22° 295° (WNW) 17:17:49 437.325
BEESAT 29 May 17:33:47 17:36:04 13° 299° (WNW) 17:38:22 436.000
PCSat 29 May 17:35:55 17:38:45 14° 39° (NE) 17:41:35 145.827
BRITE-PL 29 May 17:48:44 17:53:04 23° 64° (ENE) 17:57:22 437.365/2234.400
NOAA 15 29 May 17:52:42 17:57:16 30° 66° (ENE) 18:01:50 137.62
KKS-1 29 May 17:52:43 17:57:00 49° 288° (WNW) 18:01:15 437.445
GOMX 1 29 May 18:03:55 18:06:54 15° 62° (ENE) 18:09:50 467.674
Cubesat XI-IV 29 May 18:05:34 18:09:56 27° 65° (ENE) 18:14:20 437.490
Cosmos 2504 29 May 18:08:58 18:16:01 59° 92° (E) 18:23:30 435.465 / 435.565
HORYU 2 29 May 18:17:46 18:21:37 29° 263° (W) 18:25:30 437.375
LilacSat-2 29 May 18:17:51 18:20:50 22° 69° (ENE) 18:23:50 437.200
CUBESAT XI-V 29 May 18:18:11 18:22:11 27° 95° (E) 18:26:07 437.345
NOAA 18 29 May 18:20:41 18:25:51 46° 69° (ENE) 18:31:03 137.9125
STARS 29 May 18:22:33 18:26:44 45° 288° (WNW) 18:30:53 437.465
MOZHAYETS 4 29 May 18:24:00 18:28:06 32° 291° (WNW) 18:32:13
AO-7 29 May 18:26:09 18:30:49 16° 271° (W) 18:35:32 29.400- 29.500
YUBILEINY 29 May 18:30:37 18:38:15 34° 290° (WNW) 18:45:59 435.215
Cosmos 2491 29 May 18:34:40 18:37:43 12° 287° (WNW) 18:40:46 435.465 / 435.565
RS-15 29 May 18:41:24 18:52:47 80° 304° (NW) 19:04:53 29.354- 29.394
DOVE 4 29 May 18:41:44 18:44:42 16° 63° (ENE) 18:47:35 437.250
CUTE-I 29 May 18:50:02 18:55:17 67° 74° (ENE) 19:00:35 437.470
PCSat 29 May 19:17:41 19:23:08 73° 59° (ENE) 19:28:32 145.827
HO-68 29 May 19:24:44 19:30:17 25° 58° (ENE) 19:35:50 435.675
O/OREOS (USA 219) 29 May 19:25:13 19:29:30 41° 63° (ENE) 19:33:43 437.305
BRITE-PL 29 May 19:25:32 19:31:04 56° 261° (W) 19:36:41 437.365/2234.400
NOAA 15 29 May 19:32:05 19:36:54 35° 263° (W) 19:41:47 137.62
GOMX 1 29 May 19:38:49 19:44:19 80° 257° (WSW) 19:49:41 467.674
Cubesat XI-IV 29 May 19:44:51 19:49:48 40° 262° (W) 19:54:48 437.490
AUBIESAT-1 29 May 19:48:52 19:52:12 26° 65° (ENE) 19:55:22 437.475
SEEDS 29 May 19:51:50 19:53:45 13° 63° (ENE) 19:55:40 437.485
LilacSat-2 29 May 19:51:56 19:55:03 24° 265° (W) 19:58:10 437.200
BEESAT 3 29 May 19:52:01 19:55:22 25° 48° (NE) 19:58:40 437.485
CANX-2 29 May 19:52:21 19:55:28 20° 67° (ENE) 19:58:36 2200.000
CUBESAT XI-V 29 May 19:55:24 19:59:33 31° 291° (WNW) 20:03:40 437.345
M-CUBED/EXP-1 PRIME 29 May 19:57:02 20:00:53 39° 68° (ENE) 20:04:28 437.505
NOAA 18 29 May 20:02:25 20:06:42 24° 266° (W) 20:11:01 137.9125
Cosmos 2504 29 May 20:04:05 20:09:57 26° 293° (WNW) 20:16:08 435.465 / 435.565
DOVE 4 29 May 20:16:41 20:21:53 69° 259° (W) 20:26:52 437.250
CUTE 1.7 + AOD 2 29 May 20:18:22 20:22:09 33° 71° (ENE) 20:25:58 437.475
ISS 29 May 20:28:34 20:30:22 14° 131° (SE) 20:32:11 145.825
STRAND 1 29 May 20:30:09 20:35:06 46° 99° (E) 20:40:02 437.568
CINEMA 3 29 May 20:31:12 20:35:46 53° 74° (ENE) 20:40:10 145.822/145.860
COMPASS 1 29 May 20:31:59 20:35:22 25° 68° (ENE) 20:38:47 437.405
AAUSAT CUBESAT 2 29 May 20:32:36 20:35:39 20° 67° (ENE) 20:38:44 437.432
CUTE-I 29 May 20:32:48 20:35:48 15° 269° (W) 20:38:51 437.470
GONETS M04 29 May 20:35:56 20:36:53 10° 72° (ENE) 20:37:51
AIST 1 29 May 20:46:34 20:48:50 14° 85° (E) 20:51:06
ZACube-1 29 May 20:52:32 20:54:20 13° 63° (ENE) 20:56:06 437.345
RS-15 29 May 20:57:32 21:07:31 31° 333° (NNW) 21:17:56 29.354- 29.394
BEESAT 2 29 May 20:58:58 21:02:57 69° 55° (NE) 21:06:55 435.950
PCSat 29 May 21:02:49 21:05:51 15° 256° (WSW) 21:08:54 145.827
O/OREOS (USA 219) 29 May 21:05:29 21:08:33 18° 260° (W) 21:11:36 437.305
CUBEBUG 2 29 May 21:05:42 21:09:43 37° 72° (ENE) 21:13:39 437.445
HO-68 29 May 21:10:18 21:17:24 67° 257° (WSW) 21:24:33 435.675
AUBIESAT-1 29 May 21:23:18 21:26:38 24° 258° (WSW) 21:29:49 437.475
SEEDS 29 May 21:24:51 21:28:57 57° 260° (W) 21:33:06 437.485
CANX-2 29 May 21:27:17 21:31:06 34° 263° (W) 21:34:58 2200.000
FUNcube-1 29 May 21:27:17 21:30:51 27° 70° (ENE) 21:34:23 145.935
UWE-3 29 May 21:29:13 21:33:19 46° 73° (ENE) 21:37:21 435.000/436.395/437.385
BEESAT 3 29 May 21:29:34 21:33:03 30° 245° (WSW) 21:36:31 437.485
PHONESAT 2.4 29 May 21:30:01 21:32:10 17° 152° (SSE) 21:34:19 2401.200-2431.200
M-CUBED/EXP-1 PRIME 29 May 21:32:53 21:35:31 16° 260° (W) 21:38:03 437.505
AIST 2 29 May 21:50:35 21:53:36 19° 44° (NE) 21:56:36 435.215
CUTE 1.7 + AOD 2 29 May 21:54:57 21:58:04 20° 267° (W) 22:01:12 437.475
ISS 29 May 22:03:13 22:06:28 65° 328° (NNW) 22:09:43 145.825
Oscar 11 29 May 22:06:50 22:11:07 87° 257° (WSW) 22:15:27 145.826/435.025
PRISM 29 May 22:07:11 22:11:24 87° 109° (ESE) 22:15:32 437.425
AAUSAT CUBESAT 2 29 May 22:07:12 22:10:56 33° 263° (W) 22:14:42 437.432
COMPASS 1 29 May 22:07:19 22:10:50 27° 265° (W) 22:14:23 437.405
STRAND 1 29 May 22:10:01 22:13:58 23° 296° (WNW) 22:17:54 437.568
CINEMA 3 29 May 22:10:28 22:13:10 15° 268° (W) 22:15:49 145.822/145.860
HUMSAT D 29 May 22:14:21 22:17:35 23° 68° (ENE) 22:20:50 437.325/437.525
CUSAT 1 29 May 22:14:22 22:20:41 27° 64° (ENE) 22:26:07 437.405
DELFI C3 29 May 22:17:13 22:21:05 55° 74° (ENE) 22:25:00 145.870
AIST 1 29 May 22:21:40 22:25:57 49° 281° (W) 22:30:15
GONETS M04 29 May 22:23:10 22:31:48 63° 92° (E) 22:40:23
ZACube-1 29 May 22:25:59 22:30:08 59° 259° (W) 22:34:16 437.345
DANDE 29 May 22:29:20 22:35:34 22° 61° (ENE) 22:41:23 436.750
Cosmos 2499 29 May 22:36:45 22:43:30 43° 88° (E) 22:50:45 435.465 / 435.565
BEESAT 2 29 May 22:39:42 22:40:13 10° 252° (WSW) 22:40:43 435.950
CUBEBUG 2 29 May 22:43:25 22:46:27 18° 267° (W) 22:49:28 437.445
ANTELSAT 29 May 22:56:02 22:58:37 15° 92° (E) 23:01:12 437.575/2403.000
FUNcube-1 29 May 23:03:39 23:07:04 24° 265° (W) 23:10:27 145.935
PHONESAT 2.4 29 May 23:05:27 23:08:32 55° 167° (SSE) 23:11:37 2401.200-2431.200
UWE-3 29 May 23:07:39 23:10:01 14° 268° (W) 23:12:23 435.000/436.395/437.385
RS-15 29 May 23:16:20 23:25:26 23° 8° (N) 23:34:43 29.354- 29.394
UKube-1 29 May 23:17:58 23:19:20 11° 61° (ENE) 23:20:44 .
SO-50 29 May 23:20:45 23:21:12 10° 106° (ESE) 23:21:38 436.795
AISAT 29 May 23:21:21 23:24:32 19° 65° (ENE) 23:27:44 437.250
AIST 2 29 May 23:28:20 23:32:21 49° 242° (WSW) 23:36:21 435.215
ISS 29 May 23:41:04 23:43:23 18° 345° (NNW) 23:45:42 145.825
HUMSAT D 29 May 23:49:36 23:53:06 27° 264° (W) 23:56:37 437.325/437.525
UNISAT 6 29 May 23:50:08 23:54:26 61° 101° (ESE) 23:58:46 437.425
50 SAT 29 May 23:53:26 23:56:49 38° 72° (ENE) 00:00:14 437.505
DELFI C3 29 May 23:55:17 23:56:19 11° 270° (W) 23:57:20 145.870
CUSAT 1 29 May 23:55:59 00:03:25 59° 267° (W) 00:09:27 437.405
TIGRISAT 29 May 23:56:49 00:01:07 69° 102° (ESE) 00:05:28 435.000
DUCHIFAT 1 30 May 00:01:29 00:03:08 12° 91° (E) 00:04:47 145.980
DX 1 30 May 00:06:05 00:10:15 44° 71° (ENE) 00:14:26 434.975-435.025
CUBEBUG 1 30 May 00:06:18 00:10:37 54° 73° (ENE) 00:14:58 437.445
ESTCUBE 1 30 May 00:08:07 00:12:37 82° 77° (ENE) 00:17:11 437.505/2401.250
DANDE 30 May 00:11:05 00:19:34 86° 262° (W) 00:26:58 436.750
VELOX 1 30 May 00:19:44 00:24:11 75° 75° (ENE) 00:28:39 145.980
GONETS M04 30 May 00:21:49 00:29:11 29° 292° (WNW) 00:36:34
SPROUT 30 May 00:22:32 00:26:17 31° 70° (ENE) 00:30:04 437.525
Cosmos 2499 30 May 00:30:06 00:36:42 36° 289° (WNW) 00:43:48 435.465 / 435.565
ANTELSAT 30 May 00:31:25 00:35:34 46° 287° (WNW) 00:39:46 437.575/2403.000
TISAT 1 30 May 00:39:19 00:41:26 14° 63° (ENE) 00:43:33 437.305
POPSAT HIP 1 30 May 00:40:41 00:44:36 37° 98° (E) 00:48:29 437.405
QB50P1 30 May 00:40:49 00:44:45 38° 98° (E) 00:48:40 145.935-145.965
PHONESAT 2.4 30 May 00:42:03 00:45:11 75° 186° (S) 00:48:19 2401.200-2431.200
QB50P2 30 May 00:43:57 00:47:59 44° 99° (E) 00:52:00 145.880/145.840
POLYITAN 1 30 May 00:46:25 00:50:28 45° 99° (E) 00:54:29 437.675
UKube-1 30 May 00:50:28 00:54:47 73° 257° (WSW) 00:59:08 .
SO-50 30 May 00:56:00 01:00:54 86° 122° (ESE) 01:05:51 436.795
AISAT 30 May 00:56:29 01:00:43 41° 261° (W) 01:04:58 437.250
NANOSAT C BR1 30 May 00:57:39 01:01:47 57° 100° (E) 01:05:54 145.865
ISS 30 May 01:18:56 01:20:48 14° 6° (N) 01:22:40 145.825
JAS-2 30 May 01:27:19 01:33:19 27° 90° (E) 01:38:46 435.910
UNISAT 6 30 May 01:28:40 01:30:39 13° 297° (WNW) 01:32:39 437.425
50 SAT 30 May 01:28:58 01:30:44 13° 268° (W) 01:32:31 437.505
RS-15 30 May 01:30:44 01:42:21 45° 41° (NE) 01:53:58 29.354- 29.394
DUCHIFAT 1 30 May 01:35:05 01:39:10 55° 286° (WNW) 01:43:15 145.980
TIGRISAT 30 May 01:35:45 01:37:16 12° 298° (WNW) 01:38:48 435.000
BUGSAT 1 30 May 01:42:35 01:46:39 82° 102° (ESE) 01:50:39 437.445
DX 1 30 May 01:43:50 01:46:39 17° 267° (W) 01:49:28 434.975-435.025
CUBEBUG 1 30 May 01:44:53 01:47:13 14° 269° (W) 01:49:33 437.445
DANDE 30 May 01:56:01 02:01:04 18° 282° (WNW) 02:05:49 436.750
SPROUT 30 May 01:58:50 02:02:15 23° 265° (W) 02:05:40 437.525
TISAT 1 30 May 02:12:28 02:16:37 55° 259° (W) 02:20:46 437.305
POPSAT HIP 1 30 May 02:17:11 02:20:06 19° 294° (WNW) 02:23:03 437.405
QB50P1 30 May 02:17:21 02:20:15 18° 294° (WNW) 02:23:09 145.935-145.965
PHONESAT 2.4 30 May 02:18:52 02:21:45 34° 200° (SSW) 02:24:38 2401.200-2431.200
QB50P2 30 May 02:20:48 02:23:26 16° 295° (WNW) 02:26:04 145.880/145.840
POLYITAN 1 30 May 02:23:20 02:25:54 16° 295° (WNW) 02:28:29 437.675
SWISSCUBE 30 May 02:31:12 02:35:44 46° 71° (ENE) 02:40:18 437.505
NANOSAT C BR1 30 May 02:35:07 02:37:03 13° 297° (WNW) 02:38:58 145.865
ITUPSAT 1 30 May 02:38:43 02:43:18 49° 72° (ENE) 02:47:55 437.325
SO-50 30 May 02:38:51 02:42:03 17° 321° (NW) 02:45:13 436.795
YUBILEINY 30 May 02:43:09 02:50:15 26° 67° (ENE) 02:57:19 435.215
Oscar 19 30 May 02:45:43 02:50:44 50° 100° (E) 02:55:42 437.125/150
ISS 30 May 02:55:02 02:58:00 31° 26° (NNE) 03:00:58 145.825
BEESAT 30 May 03:00:22 03:05:06 83° 75° (ENE) 03:09:54 436.000
JAS-2 30 May 03:11:34 03:18:47 56° 291° (WNW) 03:25:11 435.910
KKS-1 30 May 03:16:04 03:18:41 15° 63° (ENE) 03:21:17 437.445
Gurwin Techsat 1B 30 May 03:29:08 03:34:22 54° 101° (E) 03:39:33 435.225
ITAMSAT 1 30 May 03:33:35 03:37:41 23° 94° (E) 03:41:47 435.822/435.867
Cosmos 2491 30 May 03:39:56 03:47:07 29° 82° (E) 03:54:16 435.465 / 435.565
RS-15 30 May 03:43:29 03:55:36 67° 245° (WSW) 04:07:38 29.354- 29.394
STARS 30 May 03:44:35 03:47:12 16° 64° (ENE) 03:49:49 437.465
MOZHAYETS 4 30 May 03:49:13 03:52:54 25° 67° (ENE) 03:56:35
Cosmos 2504 30 May 04:00:46 04:07:22 24° 66° (ENE) 04:14:07 435.465 / 435.565
SWISSCUBE 30 May 04:10:29 04:13:45 18° 267° (W) 04:17:04 437.505
ITUPSAT 1 30 May 04:18:15 04:21:24 17° 268° (W) 04:24:35 437.325
Oscar 19 30 May 04:25:55 04:29:40 21° 297° (WNW) 04:33:25 437.125/150
AO-7 30 May 04:30:37 04:37:59 33° 97° (E) 04:45:18 29.400- 29.500
ISS 30 May 04:31:27 04:34:28 35° 223° (SW) 04:37:28 145.825
YUBILEINY 30 May 04:39:07 04:47:47 69° 267° (W) 04:56:29 435.215
AO-85 30 May 04:46:57 04:47:41 10° 105° (ESE) 04:48:27 145.980
KKS-1 30 May 04:50:25 04:54:48 54° 259° (W) 04:59:12 437.445
JAS-2 30 May 05:00:00 05:02:01 11° 312° (NW) 05:04:01 435.910
Gurwin Techsat 1B 30 May 05:10:04 05:13:53 20° 297° (WNW) 05:17:42 435.225
ITAMSAT 1 30 May 05:12:23 05:17:20 44° 290° (WNW) 05:22:16 435.822/435.867
STARS 30 May 05:18:51 05:23:08 52° 260° (W) 05:27:27 437.465
CUBESAT XI-V 30 May 05:21:34 05:25:28 27° 68° (ENE) 05:29:24 437.345
MOZHAYETS 4 30 May 05:25:49 05:29:54 33° 264° (W) 05:34:02
Cosmos 2491 30 May 05:34:35 05:43:18 62° 282° (WNW) 05:52:03 435.465 / 435.565
Cosmos 2504 30 May 05:53:02 06:01:32 77° 266° (W) 06:10:23 435.465 / 435.565
RS-15 30 May 06:00:04 06:05:35 14° 266° (W) 06:11:06 29.354- 29.394
HORYU 2 30 May 06:07:50 06:12:09 49° 100° (E) 06:16:27 437.375
AO-85 30 May 06:21:56 06:27:22 76° 121° (ESE) 06:32:43 145.980
AO-7 30 May 06:22:56 06:31:03 57° 295° (WNW) 06:39:08 29.400- 29.500
YUBILEINY 30 May 06:39:57 06:42:49 12° 287° (WNW) 06:45:41 435.215
NOAA 18 30 May 06:43:26 06:47:14 19° 93° (E) 06:51:01 137.9125
CUBESAT XI-V 30 May 06:58:34 07:02:43 31° 264° (W) 07:06:55 437.345
CUTE-I 30 May 07:07:30 07:11:58 26° 95° (E) 07:16:25 437.470
LilacSat-2 30 May 07:24:36 07:28:01 32° 97° (E) 07:31:27 437.200
BRITE-PL 30 May 07:31:09 07:36:04 52° 98° (E) 07:40:33 437.365/2234.400
Cosmos 2491 30 May 07:39:11 07:42:14 12° 305° (NW) 07:45:19 435.465 / 435.565
GOMX 1 30 May 07:41:52 07:45:50 28° 94° (E) 07:49:35 467.674
HORYU 2 30 May 07:45:31 07:48:19 17° 296° (WNW) 07:51:08 437.375
STRAND 1 30 May 07:45:59 07:51:01 66° 73° (ENE) 07:56:06 437.568
NOAA 15 30 May 07:46:31 07:51:51 86° 104° (ESE) 07:57:07 137.62
SO-50 30 May 07:48:43 07:51:05 14° 36° (NE) 07:53:25 436.795
Cosmos 2504 30 May 07:49:19 07:53:33 15° 284° (WNW) 07:57:51 435.465 / 435.565
Cubesat XI-IV 30 May 08:01:25 08:06:49 81° 105° (ESE) 08:12:11 437.490
AO-85 30 May 08:04:22 08:08:26 21° 318° (NW) 08:12:24 145.980
DOVE 4 30 May 08:16:26 08:20:13 29° 95° (E) 08:23:52 437.250
AO-7 30 May 08:18:29 08:22:01 13° 316° (NW) 08:25:34 29.400- 29.500
NOAA 18 30 May 08:22:52 08:28:15 58° 289° (WNW) 08:33:37 137.9125
Cosmos 2499 30 May 08:27:35 08:33:05 18° 62° (ENE) 08:38:38 435.465 / 435.565
CINEMA 3 30 May 08:28:28 08:29:20 11° 89° (E) 08:30:12 145.822/145.860
AIST 1 30 May 08:28:39 08:32:44 38° 77° (ENE) 08:36:44
GONETS M04 30 May 08:33:46 08:41:16 31° 69° (ENE) 08:48:41
HO-68 30 May 08:38:43 08:44:19 24° 93° (E) 08:49:53 435.675
